STARLINK-31853, 59933

Orbit data source: Space-Track

STARLINK-31853, 59933 is a payload satellite owned by SpaceX/Seattle (US) in LEO that was launched on Sat, 01 Jun 2024 UTC via an FALCON 9 launch vehicle from the Air Force Eastern Test Range (AFETR). Payload-class satellites include a variety of spacecraft equipped with specific instruments for various scientific and technological missions. These include communications satellites like Starlink; space stations such as the ISS; scientific satellites like the Hubble; Earth observation satellites from companies like Planet Labs, Umbra, and HawkEye 360; GPS; miniature CubeSats for education and research; and military/defense satellites.

Loading next visibility...
Identifier
59933, 2024-106M
Orbit
LEO
Country
Flag of USUS
Related business
Manufacturer
SpaceX/Seattle
Mission
Operational Commercial Communications
Bus & Motor
STARLINK V2M, Unknown motor
Mass
730 kg wet, ~700 kg dry
Launch date (UTC)
2024-06-01 (1 year ago)
Launch vehicle
FALCON 9
Launch site
Air Force Eastern Test Range (AFETR)
Object type
Payload
Rocket body
Debris
Shape & HBR
Box + 2 Pan, 17.7 m
Radar Cross Section
33.884 m², Large (>1 m²)

Expand to show TLE details & history
Last TLE update: 22 hours ago

TLE from 22 hours ago
0 STARLINK-31853
1 59933U 24106M   25312.66603850  .00000988  00000-0  45403-4 0  9994
2 59933  43.0060 296.0137 0001122 264.9523  95.1201 15.27583185 82013
Epoch: 2025-11-08T15:59Z
TLE epoch observation values (Epoch: 2025-11-08T15:59:05.726Z)
Latitude
0.00001°
Longitude
8.14747°
Altitude
482.884 km
Speed
7.626 km/s
True Right ascension
19h 44m 03s
True Declination
0° 00' 00"
Sunlit
Object was in daylight at epoch
Visualization orbit readout
Latitude
Unknown
Longitude
Unknown
Altitude
Unknown
Speed
Unknown
Apparent Right ascension
Unknown
Apparent Declination
Unknown
Sunlit
N/A
Visualization observer readout
Local Sidereal Time
09:54:11
Azimuth
Unknown
Elevation
Unknown
Doppler factor
Unknown
Orbital elements
Apogee altitude
485.754 km
Perigee altitude
484.214 km
Semi-major axis
6,863.121 km
Eccentricity
0.00011
Inclination
43.006°
RAAN
296.0137°
Arg. of periapsis
264.9523°
True anomaly
95.13291°
Mean anomaly
95.1201°
Eccentric anomaly
95.1265°
Mean motion
3.81734 °/min
Orbital period
94.31 mins
BSTAR
0.000045403
Loading maneuver chart data...
Computing Atmospheric mass density...
Loading historical data...
Loading historical data...
Loading historical data...
Loading historical data...
Loading historical data...
Loading historical data...
Loading historical data...

Documentation

Showing up to 5 results
|